カタログに戻る

QIANFAN-205

運用中通信PO
NORAD 69804·PAYLOAD·🇨🇳 China

打ち上げ Jul 4, 2026 から Taiyuan Satellite Launch Center

Loading…

次のパス (今後24時間)

TLE

最新Source: Space-Track

元期: Sep 14, 2026, 12:26 UTC

1 69804U 26153E   26257.51864265 -.01823741  00000-0 -13077+1 0  9999
2 69804  88.9974 352.1396 0008166 348.8816  11.2182 14.01404206 10202

AllMySatでQIANFAN-205をリアルタイム追跡

Download on the App Store